Time,TemperatureF,DewpointF,PressureIn,WindDirection,WindDirectionDegrees,WindSpeedMPH,WindSpeedGustMPH,Humidity,HourlyPrecipIn,Conditions,Clouds,dailyrainin,SoftwareType,DateUTC
2013-06-29 00:01:00,71.6,67.9,29.59,North,350,6.9,6.9,88,0.04,RA,OVC,0.00,WeatherDisplay:10.37,2013-06-29 04:01:00,
2013-06-29 00:06:00,71.4,67.7,29.58,North,350,6.9,6.9,88,0.02,-RA,OVC,0.00,WeatherDisplay:10.37,2013-06-29 04:06:00,
2013-06-29 00:11:00,71.2,67.8,29.58,North,350,6.9,6.9,89,0.02,-RA,OVC,0.00,WeatherDisplay:10.37,2013-06-29 04:11:00,
2013-06-29 00:16:00,71.2,67.8,29.58,West,260,6.9,8.1,89,0.02,OVC,,0.00,WeatherDisplay:10.37,2013-06-29 04:16:00,
2013-06-29 00:21:00,71.2,67.8,29.58,West,260,8.1,8.1,89,0.02,OVC,,0.00,WeatherDisplay:10.37,2013-06-29 04:21:00,
2013-06-29 00:26:00,71.1,68.0,29.58,West,260,8.1,8.1,90,0.00,OVC,,0.00,WeatherDisplay:10.37,2013-06-29 04:26:00,
2013-06-29 00:31:00,70.9,67.8,29.58,West,260,8.1,8.1,90,0.00,OVC,,0.00,WeatherDisplay:10.37,2013-06-29 04:31:00,
2013-06-29 00:36:00,70.9,67.8,29.58,West,260,8.1,8.1,90,0.00,OVC,,0.00,WeatherDisplay:10.37,2013-06-29 04:36:00,
2013-06-29 00:41:00,70.7,67.6,29.58,West,260,8.1,8.1,90,0.00,OVC,,0.00,WeatherDisplay:10.37,2013-06-29 04:41:00,
2013-06-29 00:46:00,70.7,67.6,29.58,West,260,8.1,8.1,90,0.00,OVC,,0.00,WeatherDisplay:10.37,2013-06-29 04:46:00,
2013-06-29 00:51:00,70.5,67.4,29.58,West,260,8.1,8.1,90,0.00,OVC,,0.00,WeatherDisplay:10.37,2013-06-29 04:51:00,
2013-06-29 00:56:00,70.5,67.4,29.58,West,260,8.1,8.1,90,0.00,OVC,,0.00,WeatherDisplay:10.37,2013-06-29 04:56:00,
2013-06-29 01:01:00,70.3,67.3,29.58,West,260,8.1,8.1,90,0.00,OVC,,0.00,WeatherDisplay:10.37,2013-06-29 05:01:00,
2013-06-29 01:06:00,70.2,67.1,29.58,West,260,8.1,8.1,90,0.00,OVC,,0.00,WeatherDisplay:10.37,2013-06-29 05:06:00,
2013-06-29 01:11:00,70.2,67.1,29.57,West,260,8.1,8.1,90,0.00,OVC,,0.00,WeatherDisplay:10.37,2013-06-29 05:11:00,
2013-06-29 01:16:00,70.2,67.1,29.57,West,270,8.1,8.1,90,0.00,SCT,OVC,0.00,WeatherDisplay:10.37,2013-06-29 05:16:00,
2013-06-29 01:21:00,70.0,66.9,29.57,West,270,6.9,6.9,90,0.00,SCT,OVC,0.00,WeatherDisplay:10.37,2013-06-29 05:21:00,
2013-06-29 01:26:00,70.0,66.9,29.57,West,270,6.9,6.9,90,0.00,SCT,OVC,0.00,WeatherDisplay:10.37,2013-06-29 05:26:00,
2013-06-29 01:31:00,70.0,66.9,29.57,West,270,6.9,6.9,90,0.00,SCT,OVC,0.00,WeatherDisplay:10.37,2013-06-29 05:31:00,
2013-06-29 01:36:00,69.8,66.7,29.57,West,270,6.9,6.9,90,0.00,SCT,OVC,0.00,WeatherDisplay:10.37,2013-06-29 05:36:00,
2013-06-29 01:41:00,69.6,66.6,29.57,West,270,6.9,6.9,90,0.00,SCT,OVC,0.00,WeatherDisplay:10.37,2013-06-29 05:41:00,
2013-06-29 01:46:00,69.6,66.6,29.57,West,270,6.9,6.9,90,0.00,SCT,OVC,0.00,WeatherDisplay:10.37,2013-06-29 05:46:00,
2013-06-29 01:51:00,69.6,66.6,29.57,West,270,6.9,6.9,90,0.00,SCT,OVC,0.00,WeatherDisplay:10.37,2013-06-29 05:51:00,
2013-06-29 01:56:00,69.4,66.4,29.57,West,270,6.9,6.9,90,0.00,SCT,OVC,0.00,WeatherDisplay:10.37,2013-06-29 05:56:00,
2013-06-29 02:01:00,69.4,66.7,29.57,West,270,6.9,6.9,91,0.00,SCT,OVC,0.00,WeatherDisplay:10.37,2013-06-29 06:01:00,
2013-06-29 02:06:00,69.4,66.7,29.57,West,270,6.9,6.9,91,0.00,SCT,OVC,0.00,WeatherDisplay:10.37,2013-06-29 06:06:00,
2013-06-29 02:11:00,69.4,66.7,29.57,West,270,6.9,6.9,91,0.00,SCT,OVC,0.00,WeatherDisplay:10.37,2013-06-29 06:11:00,
2013-06-29 02:16:00,69.3,66.5,29.56,West,270,6.9,6.9,91,0.00,CLR,OVC,0.00,WeatherDisplay:10.37,2013-06-29 06:16:00,
2013-06-29 02:21:00,69.3,66.5,29.56,West,270,5.8,5.8,91,0.00,CLR,OVC,0.00,WeatherDisplay:10.37,2013-06-29 06:21:00,
2013-06-29 02:26:00,69.3,66.5,29.56,West,270,5.8,5.8,91,0.00,CLR,OVC,0.00,WeatherDisplay:10.37,2013-06-29 06:26:00,
2013-06-29 02:31:00,69.1,66.3,29.56,West,270,5.8,5.8,91,0.00,CLR,OVC,0.00,WeatherDisplay:10.37,2013-06-29 06:31:00,
2013-06-29 02:36:00,69.1,66.3,29.56,West,270,5.8,5.8,91,0.00,CLR,OVC,0.00,WeatherDisplay:10.37,2013-06-29 06:36:00,
2013-06-29 02:41:00,69.1,66.3,29.56,West,270,5.8,5.8,91,0.00,CLR,OVC,0.00,WeatherDisplay:10.37,2013-06-29 06:41:00,
2013-06-29 02:46:00,69.1,66.3,29.56,West,270,5.8,5.8,91,0.00,CLR,OVC,0.00,WeatherDisplay:10.37,2013-06-29 06:46:00,
2013-06-29 02:51:00,69.1,66.3,29.56,West,270,5.8,5.8,91,0.00,CLR,OVC,0.00,WeatherDisplay:10.37,2013-06-29 06:51:00,
2013-06-29 02:56:00,68.9,66.2,29.56,West,270,5.8,5.8,91,0.00,CLR,OVC,0.00,WeatherDisplay:10.37,2013-06-29 06:56:00,
2013-06-29 03:01:00,68.9,66.2,29.56,West,270,5.8,5.8,91,0.00,CLR,OVC,0.00,WeatherDisplay:10.37,2013-06-29 07:01:00,
2013-06-29 03:06:00,68.9,66.2,29.56,West,270,5.8,5.8,91,0.00,CLR,OVC,0.00,WeatherDisplay:10.37,2013-06-29 07:06:00,
2013-06-29 03:11:00,68.9,66.2,29.56,West,270,5.8,5.8,91,0.00,CLR,OVC,0.00,WeatherDisplay:10.37,2013-06-29 07:11:00,
2013-06-29 03:16:00,68.7,66.0,29.56,WSW,240,6.9,6.9,91,0.00,CLR,OVC,0.00,WeatherDisplay:10.37,2013-06-29 07:16:00,
2013-06-29 03:21:00,68.7,66.0,29.56,WSW,240,6.9,6.9,91,0.00,CLR,OVC,0.00,WeatherDisplay:10.37,2013-06-29 07:21:00,
2013-06-29 03:26:00,68.7,66.0,29.56,WSW,240,6.9,6.9,91,0.00,CLR,OVC,0.00,WeatherDisplay:10.37,2013-06-29 07:26:00,
2013-06-29 03:31:00,68.5,66.1,29.56,WSW,240,6.9,6.9,92,0.00,CLR,OVC,0.00,WeatherDisplay:10.37,2013-06-29 07:31:00,
2013-06-29 03:36:00,68.5,66.1,29.56,WSW,240,6.9,6.9,92,0.00,CLR,OVC,0.00,WeatherDisplay:10.37,2013-06-29 07:36:00,
2013-06-29 03:41:00,68.5,66.1,29.56,WSW,240,6.9,6.9,92,0.00,CLR,OVC,0.00,WeatherDisplay:10.37,2013-06-29 07:41:00,
2013-06-29 03:46:00,68.4,65.6,29.56,WSW,240,6.9,6.9,91,0.00,CLR,OVC,0.00,WeatherDisplay:10.37,2013-06-29 07:46:00,
2013-06-29 03:51:00,68.2,65.5,29.55,WSW,240,6.9,6.9,91,0.00,CLR,OVC,0.00,WeatherDisplay:10.37,2013-06-29 07:51:00,
2013-06-29 03:56:00,68.2,65.8,29.56,WSW,240,6.9,6.9,92,0.00,CLR,OVC,0.00,WeatherDisplay:10.37,2013-06-29 07:56:00,
2013-06-29 04:01:00,68.2,65.8,29.56,WSW,240,6.9,6.9,92,0.00,CLR,OVC,0.00,WeatherDisplay:10.37,2013-06-29 08:01:00,
2013-06-29 04:06:00,68.0,65.6,29.55,WSW,240,6.9,6.9,92,0.00,CLR,OVC,0.00,WeatherDisplay:10.37,2013-06-29 08:06:00,
2013-06-29 04:11:00,67.8,65.1,29.55,WSW,240,6.9,6.9,91,0.00,CLR,OVC,0.00,WeatherDisplay:10.37,2013-06-29 08:11:00,
2013-06-29 04:16:00,68.2,65.8,29.55,West,260,8.1,8.1,92,0.00,CLR,OVC,0.00,WeatherDisplay:10.37,2013-06-29 08:16:00,
2013-06-29 04:21:00,68.2,65.8,29.55,West,260,8.1,8.1,92,0.00,CLR,OVC,0.00,WeatherDisplay:10.37,2013-06-29 08:21:00,
2013-06-29 04:26:00,68.2,65.8,29.55,West,260,8.1,8.1,92,0.00,CLR,OVC,0.00,WeatherDisplay:10.37,2013-06-29 08:26:00,
2013-06-29 04:31:00,68.0,65.6,29.55,West,260,8.1,8.1,92,0.00,CLR,OVC,0.00,WeatherDisplay:10.37,2013-06-29 08:31:00,
2013-06-29 04:36:00,67.8,65.1,29.55,West,260,8.1,8.1,91,0.00,CLR,OVC,0.00,WeatherDisplay:10.37,2013-06-29 08:36:00,
2013-06-29 04:41:00,67.8,65.1,29.55,West,260,8.1,8.1,91,0.00,CLR,OVC,0.00,WeatherDisplay:10.37,2013-06-29 08:41:00,
2013-06-29 04:46:00,67.8,65.1,29.55,West,260,8.1,8.1,91,0.00,CLR,OVC,0.00,WeatherDisplay:10.37,2013-06-29 08:46:00,
2013-06-29 04:51:00,67.8,65.1,29.55,West,260,8.1,8.1,91,0.00,CLR,OVC,0.00,WeatherDisplay:10.37,2013-06-29 08:51:00,
2013-06-29 04:56:00,67.8,65.1,29.55,West,260,8.1,8.1,91,0.00,CLR,OVC,0.00,WeatherDisplay:10.37,2013-06-29 08:56:00,
2013-06-29 05:01:00,67.8,65.1,29.55,West,260,8.1,8.1,91,0.00,CLR,OVC,0.00,WeatherDisplay:10.37,2013-06-29 09:01:00,
2013-06-29 05:06:00,67.6,65.2,29.55,West,260,8.1,8.1,92,0.00,CLR,OVC,0.00,WeatherDisplay:10.37,2013-06-29 09:06:00,
2013-06-29 05:11:00,67.6,65.2,29.56,West,260,8.1,8.1,92,0.00,CLR,OVC,0.00,WeatherDisplay:10.37,2013-06-29 09:11:00,
2013-06-29 05:16:00,67.6,65.2,29.56,West,270,8.1,8.1,92,0.00,CLR,OVC,0.00,WeatherDisplay:10.37,2013-06-29 09:16:00,
2013-06-29 05:21:00,67.6,65.2,29.56,West,270,4.6,4.6,92,0.00,CLR,OVC,0.00,WeatherDisplay:10.37,2013-06-29 09:21:00,
2013-06-29 05:26:00,67.6,65.2,29.55,West,270,4.6,4.6,92,0.00,CLR,OVC,0.00,WeatherDisplay:10.37,2013-06-29 09:26:00,
2013-06-29 05:31:00,67.6,65.2,29.55,West,270,4.6,4.6,92,0.00,CLR,OVC,0.00,WeatherDisplay:10.37,2013-06-29 09:31:00,
2013-06-29 05:36:00,67.5,65.1,29.55,West,270,4.6,4.6,92,0.00,CLR,OVC,0.00,WeatherDisplay:10.37,2013-06-29 09:36:00,
2013-06-29 05:41:00,67.3,64.9,29.55,West,270,4.6,4.6,92,0.00,CLR,OVC,0.00,WeatherDisplay:10.37,2013-06-29 09:41:00,
2013-06-29 05:46:00,67.3,64.9,29.56,West,270,4.6,4.6,92,0.00,CLR,OVC,0.00,WeatherDisplay:10.37,2013-06-29 09:46:00,
2013-06-29 05:51:00,67.3,64.9,29.56,West,270,4.6,4.6,92,0.00,CLR,OVC,0.00,WeatherDisplay:10.37,2013-06-29 09:51:00,
2013-06-29 05:56:00,67.3,64.9,29.56,West,270,4.6,4.6,92,0.00,CLR,OVC,0.00,WeatherDisplay:10.37,2013-06-29 09:56:00,
2013-06-29 06:01:00,67.3,64.9,29.57,West,270,4.6,4.6,92,0.00,CLR,OVC,0.00,WeatherDisplay:10.37,2013-06-29 10:01:00,
2013-06-29 06:06:00,67.1,64.7,29.57,West,270,4.6,4.6,92,0.00,CLR,OVC,0.00,WeatherDisplay:10.37,2013-06-29 10:06:00,
2013-06-29 06:11:00,66.9,64.5,29.56,West,270,4.6,4.6,92,0.00,CLR,OVC,0.00,WeatherDisplay:10.37,2013-06-29 10:11:00,
2013-06-29 06:16:00,66.9,64.5,29.56,WSW,250,4.6,5.8,92,0.00,CLR,OVC,0.00,WeatherDisplay:10.37,2013-06-29 10:16:00,
2013-06-29 06:21:00,66.9,64.5,29.56,WSW,250,5.8,5.8,92,0.00,CLR,OVC,0.00,WeatherDisplay:10.37,2013-06-29 10:21:00,
2013-06-29 06:26:00,66.9,64.5,29.57,WSW,250,5.8,5.8,92,0.00,CLR,OVC,0.00,WeatherDisplay:10.37,2013-06-29 10:26:00,
2013-06-29 06:31:00,66.7,64.3,29.57,WSW,250,5.8,5.8,92,0.00,CLR,OVC,0.00,WeatherDisplay:10.37,2013-06-29 10:31:00,
2013-06-29 06:36:00,66.7,64.3,29.57,WSW,250,5.8,5.8,92,0.00,CLR,OVC,0.00,WeatherDisplay:10.37,2013-06-29 10:36:00,
2013-06-29 06:41:00,66.7,64.3,29.57,WSW,250,5.8,5.8,92,0.00,CLR,OVC,0.00,WeatherDisplay:10.37,2013-06-29 10:41:00,
2013-06-29 06:46:00,66.7,64.3,29.57,West,280,8.1,8.1,92,0.00,BKN,OVC,0.00,WeatherDisplay:10.37,2013-06-29 10:46:00,
2013-06-29 06:51:00,66.7,64.3,29.56,West,280,8.1,8.1,92,0.00,BKN,OVC,0.00,WeatherDisplay:10.37,2013-06-29 10:51:00,
2013-06-29 06:56:00,66.7,64.3,29.56,West,280,8.1,8.1,92,0.00,BKN,OVC,0.00,WeatherDisplay:10.37,2013-06-29 10:56:00,
2013-06-29 07:01:00,66.7,64.7,29.56,West,280,8.1,8.1,93,0.00,BKN,OVC,0.00,WeatherDisplay:10.37,2013-06-29 11:01:00,
2013-06-29 07:06:00,66.7,64.7,29.56,West,280,8.1,8.1,93,0.00,BKN,OVC,0.00,WeatherDisplay:10.37,2013-06-29 11:06:00,
2013-06-29 07:11:00,66.7,64.7,29.56,West,280,8.1,8.1,93,0.00,BKN,OVC,0.00,WeatherDisplay:10.37,2013-06-29 11:11:00,
2013-06-29 07:16:00,66.7,64.7,29.56,West,260,8.1,8.1,93,0.00,SCT,OVC,0.00,WeatherDisplay:10.37,2013-06-29 11:16:00,
2013-06-29 07:21:00,66.7,64.7,29.56,West,260,6.9,6.9,93,0.00,SCT,OVC,0.00,WeatherDisplay:10.37,2013-06-29 11:21:00,
2013-06-29 07:26:00,66.7,64.7,29.57,West,260,6.9,6.9,93,0.00,SCT,OVC,0.00,WeatherDisplay:10.37,2013-06-29 11:26:00,
2013-06-29 07:31:00,66.9,64.8,29.57,West,260,6.9,6.9,93,0.00,SCT,OVC,0.00,WeatherDisplay:10.37,2013-06-29 11:31:00,
2013-06-29 07:36:00,66.9,64.8,29.57,West,260,6.9,6.9,93,0.00,SCT,OVC,0.00,WeatherDisplay:10.37,2013-06-29 11:36:00,
2013-06-29 07:41:00,67.1,65.0,29.57,West,260,6.9,6.9,93,0.00,SCT,OVC,0.00,WeatherDisplay:10.37,2013-06-29 11:41:00,
2013-06-29 07:46:00,67.3,65.2,29.57,West,260,6.9,6.9,93,0.00,SCT,OVC,0.00,WeatherDisplay:10.37,2013-06-29 11:46:00,
2013-06-29 07:51:00,67.3,65.2,29.57,West,260,6.9,6.9,93,0.00,SCT,OVC,0.00,WeatherDisplay:10.37,2013-06-29 11:51:00,
2013-06-29 07:56:00,67.6,65.9,29.57,West,260,6.9,6.9,94,0.00,SCT,OVC,0.00,WeatherDisplay:10.37,2013-06-29 11:56:00,
2013-06-29 08:01:00,67.6,65.9,29.57,West,260,6.9,6.9,94,0.00,SCT,OVC,0.00,WeatherDisplay:10.37,2013-06-29 12:01:00,
2013-06-29 08:06:00,67.6,65.9,29.57,West,260,6.9,6.9,94,0.00,SCT,OVC,0.00,WeatherDisplay:10.37,2013-06-29 12:06:00,
2013-06-29 08:11:00,67.8,66.0,29.57,West,260,6.9,6.9,94,0.00,SCT,OVC,0.00,WeatherDisplay:10.37,2013-06-29 12:11:00,
2013-06-29 08:16:00,68.2,66.4,29.57,WSW,250,8.1,8.1,94,0.00,CLR,OVC,0.00,WeatherDisplay:10.37,2013-06-29 12:16:00,
2013-06-29 08:21:00,68.2,66.4,29.57,WSW,250,8.1,8.1,94,0.00,CLR,OVC,0.00,WeatherDisplay:10.37,2013-06-29 12:21:00,
2013-06-29 08:26:00,68.5,66.7,29.56,WSW,250,8.1,8.1,94,0.00,CLR,OVC,0.00,WeatherDisplay:10.37,2013-06-29 12:26:00,
2013-06-29 08:31:00,68.7,66.9,29.57,WSW,250,8.1,8.1,94,0.00,CLR,OVC,0.00,WeatherDisplay:10.37,2013-06-29 12:31:00,
2013-06-29 08:36:00,68.9,67.1,29.57,WSW,250,8.1,8.1,94,0.00,CLR,OVC,0.00,WeatherDisplay:10.37,2013-06-29 12:36:00,
2013-06-29 08:41:00,69.3,67.5,29.57,WSW,250,8.1,8.1,94,0.00,CLR,OVC,0.00,WeatherDisplay:10.37,2013-06-29 12:41:00,
2013-06-29 08:46:00,69.4,67.6,29.57,WSW,250,8.1,8.1,94,0.00,CLR,OVC,0.00,WeatherDisplay:10.37,2013-06-29 12:46:00,
2013-06-29 08:51:00,69.6,67.8,29.57,WSW,250,8.1,8.1,94,0.00,CLR,OVC,0.00,WeatherDisplay:10.37,2013-06-29 12:51:00,
2013-06-29 08:56:00,69.8,67.7,29.57,WSW,250,8.1,8.1,93,0.00,CLR,OVC,0.00,WeatherDisplay:10.37,2013-06-29 12:56:00,
2013-06-29 09:01:00,70.0,67.9,29.57,WSW,250,8.1,8.1,93,0.00,CLR,OVC,0.00,WeatherDisplay:10.37,2013-06-29 13:01:00,
2013-06-29 09:06:00,70.0,67.9,29.57,WSW,250,8.1,8.1,93,0.00,CLR,OVC,0.00,WeatherDisplay:10.37,2013-06-29 13:06:00,
2013-06-29 09:11:00,70.3,68.2,29.57,WSW,250,8.1,8.1,93,0.00,CLR,OVC,0.00,WeatherDisplay:10.37,2013-06-29 13:11:00,
2013-06-29 09:16:00,70.3,68.2,29.57,West,260,8.1,8.1,93,0.00,FEW,OVC,0.00,WeatherDisplay:10.37,2013-06-29 13:16:00,
2013-06-29 09:21:00,70.5,68.4,29.57,West,260,6.9,6.9,93,0.00,FEW,OVC,0.00,WeatherDisplay:10.37,2013-06-29 13:21:00,
2013-06-29 09:26:00,70.7,68.6,29.57,West,260,6.9,6.9,93,0.00,FEW,OVC,0.00,WeatherDisplay:10.37,2013-06-29 13:26:00,
2013-06-29 09:31:00,70.9,68.8,29.57,West,260,6.9,6.9,93,0.00,FEW,OVC,0.00,WeatherDisplay:10.37,2013-06-29 13:31:00,
2013-06-29 09:36:00,71.2,69.1,29.57,West,260,6.9,6.9,93,0.00,FEW,OVC,0.00,WeatherDisplay:10.37,2013-06-29 13:36:00,
2013-06-29 09:41:00,71.2,69.1,29.57,West,260,6.9,6.9,93,0.00,FEW,OVC,0.00,WeatherDisplay:10.37,2013-06-29 13:41:00,
2013-06-29 09:46:00,71.4,69.3,29.58,West,260,6.9,6.9,93,0.00,FEW,OVC,0.00,WeatherDisplay:10.37,2013-06-29 13:46:00,
2013-06-29 09:51:00,71.8,69.6,29.58,West,260,6.9,6.9,93,0.00,FEW,OVC,0.00,WeatherDisplay:10.37,2013-06-29 13:51:00,
2013-06-29 09:56:00,72.0,69.8,29.58,West,260,6.9,6.9,93,0.00,FEW,OVC,0.00,WeatherDisplay:10.37,2013-06-29 13:56:00,
2013-06-29 10:01:00,72.1,70.0,29.58,West,260,6.9,6.9,93,0.00,FEW,OVC,0.00,WeatherDisplay:10.37,2013-06-29 14:01:00,
2013-06-29 10:06:00,72.5,70.4,29.58,West,260,6.9,6.9,93,0.00,FEW,OVC,0.00,WeatherDisplay:10.37,2013-06-29 14:06:00,
2013-06-29 10:11:00,72.7,70.5,29.59,West,260,6.9,6.9,93,0.00,FEW,OVC,0.00,WeatherDisplay:10.37,2013-06-29 14:11:00,
2013-06-29 10:16:00,73.0,70.9,29.59,West,260,6.9,6.9,93,0.00,SCT,OVC,0.00,WeatherDisplay:10.37,2013-06-29 14:16:00,
2013-06-29 10:21:00,73.0,70.6,29.59,West,260,6.9,6.9,92,0.00,SCT,OVC,0.00,WeatherDisplay:10.37,2013-06-29 14:21:00,
2013-06-29 10:26:00,73.0,70.6,29.59,West,260,6.9,6.9,92,0.00,SCT,OVC,0.00,WeatherDisplay:10.37,2013-06-29 14:26:00,
2013-06-29 10:31:00,73.0,70.6,29.58,West,260,6.9,6.9,92,0.00,SCT,OVC,0.00,WeatherDisplay:10.37,2013-06-29 14:31:00,
2013-06-29 10:36:00,73.0,70.3,29.58,West,260,6.9,6.9,91,0.00,SCT,OVC,0.00,WeatherDisplay:10.37,2013-06-29 14:36:00,
2013-06-29 10:41:00,72.9,70.1,29.58,West,260,6.9,6.9,91,0.00,SCT,OVC,0.00,WeatherDisplay:10.37,2013-06-29 14:41:00,
2013-06-29 10:46:00,73.0,70.3,29.59,West,260,6.9,6.9,91,0.00,SCT,OVC,0.00,WeatherDisplay:10.37,2013-06-29 14:46:00,
2013-06-29 10:51:00,73.0,70.3,29.58,West,260,6.9,6.9,91,0.00,SCT,OVC,0.00,WeatherDisplay:10.37,2013-06-29 14:51:00,
2013-06-29 10:56:00,73.2,70.4,29.58,West,260,6.9,6.9,91,0.00,SCT,OVC,0.00,WeatherDisplay:10.37,2013-06-29 14:56:00,
2013-06-29 11:01:00,73.8,71.3,29.58,West,260,6.9,6.9,92,0.00,SCT,OVC,0.00,WeatherDisplay:10.37,2013-06-29 15:01:00,
2013-06-29 11:06:00,73.9,71.1,29.58,West,260,6.9,6.9,91,0.00,SCT,OVC,0.00,WeatherDisplay:10.37,2013-06-29 15:06:00,
2013-06-29 11:11:00,74.3,71.5,29.58,West,260,6.9,6.9,91,0.00,SCT,OVC,0.00,WeatherDisplay:10.37,2013-06-29 15:11:00,
2013-06-29 11:16:00,74.7,71.5,29.58,WSW,250,8.1,8.1,90,0.00,OVC,,0.00,WeatherDisplay:10.37,2013-06-29 15:16:00,
2013-06-29 11:21:00,75.0,71.9,29.58,WSW,250,8.1,8.1,90,0.00,OVC,,0.00,WeatherDisplay:10.37,2013-06-29 15:21:00,
2013-06-29 11:26:00,75.9,72.4,29.58,WSW,250,8.1,8.1,89,0.00,OVC,,0.00,WeatherDisplay:10.37,2013-06-29 15:26:00,
2013-06-29 11:31:00,76.6,73.2,29.58,WSW,250,8.1,8.1,89,0.00,OVC,,0.00,WeatherDisplay:10.37,2013-06-29 15:31:00,
2013-06-29 11:36:00,76.8,72.7,29.58,WSW,250,8.1,8.1,87,0.00,OVC,,0.00,WeatherDisplay:10.37,2013-06-29 15:36:00,
2013-06-29 11:41:00,77.4,72.8,29.58,WSW,250,8.1,8.1,86,0.00,OVC,,0.00,WeatherDisplay:10.37,2013-06-29 15:41:00,
2013-06-29 11:46:00,77.9,73.4,29.58,WSW,250,8.1,8.1,86,0.00,OVC,,0.00,WeatherDisplay:10.37,2013-06-29 15:46:00,
2013-06-29 11:51:00,78.1,73.2,29.58,WSW,250,8.1,8.1,85,0.00,OVC,,0.00,WeatherDisplay:10.37,2013-06-29 15:51:00,
2013-06-29 11:56:00,78.8,73.6,29.58,WSW,250,8.1,8.1,84,0.00,OVC,,0.00,WeatherDisplay:10.37,2013-06-29 15:56:00,
2013-06-29 12:01:00,79.2,73.9,29.58,WSW,250,8.1,8.1,84,0.00,OVC,,0.00,WeatherDisplay:10.37,2013-06-29 16:01:00,
2013-06-29 12:06:00,79.5,73.9,29.58,WSW,250,8.1,8.1,83,0.00,OVC,,0.00,WeatherDisplay:10.37,2013-06-29 16:06:00,
2013-06-29 12:11:00,79.9,73.5,29.58,WSW,250,8.1,8.1,81,0.00,OVC,,0.00,WeatherDisplay:10.37,2013-06-29 16:11:00,
2013-06-29 12:16:00,80.2,73.9,29.58,SW,230,8.1,8.1,81,0.00,FEW,OVC,0.00,WeatherDisplay:10.37,2013-06-29 16:16:00,
2013-06-29 12:21:00,80.6,73.9,29.58,SW,230,5.8,5.8,80,0.00,FEW,OVC,0.00,WeatherDisplay:10.37,2013-06-29 16:21:00,
2013-06-29 12:26:00,81.3,74.2,29.58,SW,230,5.8,5.8,79,0.00,FEW,OVC,0.00,WeatherDisplay:10.37,2013-06-29 16:26:00,
2013-06-29 12:31:00,82.0,74.5,29.58,SW,230,5.8,5.8,78,0.00,FEW,OVC,0.00,WeatherDisplay:10.37,2013-06-29 16:31:00,
2013-06-29 12:36:00,82.2,73.5,29.58,SW,230,5.8,5.8,75,0.00,FEW,OVC,0.00,WeatherDisplay:10.37,2013-06-29 16:36:00,
2013-06-29 12:41:00,82.8,74.0,29.57,SW,230,5.8,5.8,75,0.00,FEW,OVC,0.00,WeatherDisplay:10.37,2013-06-29 16:41:00,
2013-06-29 12:46:00,83.1,74.8,29.57,SW,230,5.8,5.8,76,0.00,FEW,OVC,0.00,WeatherDisplay:10.37,2013-06-29 16:46:00,
2013-06-29 12:51:00,83.3,72.9,29.58,SW,230,5.8,5.8,71,0.00,FEW,OVC,0.00,WeatherDisplay:10.37,2013-06-29 16:51:00,
2013-06-29 12:56:00,83.7,71.5,29.57,SW,230,5.8,5.8,67,0.00,FEW,OVC,0.00,WeatherDisplay:10.37,2013-06-29 16:56:00,
2013-06-29 13:01:00,83.7,71.1,29.58,SW,230,5.8,5.8,66,0.00,FEW,OVC,0.00,WeatherDisplay:10.37,2013-06-29 17:01:00,
2013-06-29 13:06:00,84.0,71.9,29.58,SW,230,5.8,5.8,67,0.00,FEW,OVC,0.00,WeatherDisplay:10.37,2013-06-29 17:06:00,
2013-06-29 13:12:00,84.4,71.3,29.58,SW,230,5.8,5.8,65,0.00,FEW,OVC,0.00,WeatherDisplay:10.37,2013-06-29 17:12:00,
2013-06-29 13:17:00,84.6,71.5,29.57,WSW,250,8.1,8.1,65,0.00,CLR,OVC,0.00,WeatherDisplay:10.37,2013-06-29 17:17:00,
2013-06-29 13:22:00,84.7,71.7,29.57,WSW,250,8.1,8.1,65,0.00,CLR,OVC,0.00,WeatherDisplay:10.37,2013-06-29 17:22:00,
2013-06-29 13:27:00,84.7,71.7,29.57,WSW,250,8.1,8.1,65,0.00,CLR,OVC,0.00,WeatherDisplay:10.37,2013-06-29 17:27:00,
2013-06-29 13:32:00,84.9,71.4,29.57,WSW,250,8.1,8.1,64,0.00,CLR,OVC,0.00,WeatherDisplay:10.37,2013-06-29 17:32:00,
2013-06-29 13:37:00,85.3,72.2,29.57,WSW,250,8.1,8.1,65,0.00,CLR,OVC,0.00,WeatherDisplay:10.37,2013-06-29 17:37:00,
2013-06-29 13:42:00,85.3,71.7,29.57,WSW,250,8.1,8.1,64,0.00,CLR,OVC,0.00,WeatherDisplay:10.37,2013-06-29 17:42:00,
2013-06-29 13:47:00,85.1,72.0,29.57,WSW,250,8.1,8.1,65,0.00,CLR,OVC,0.00,WeatherDisplay:10.37,2013-06-29 17:47:00,
2013-06-29 13:52:00,84.6,71.5,29.57,WSW,250,8.1,8.1,65,0.00,CLR,OVC,0.00,WeatherDisplay:10.37,2013-06-29 17:52:00,
2013-06-29 13:57:00,84.6,70.6,29.57,WSW,250,8.1,8.1,63,0.00,SCT,OVC,0.00,WeatherDisplay:10.37,2013-06-29 17:57:00,
2013-06-29 14:02:00,84.9,70.4,29.56,WSW,250,8.1,8.1,62,0.00,CLR,OVC,0.00,WeatherDisplay:10.37,2013-06-29 18:02:00,
2013-06-29 14:07:00,84.9,70.4,29.56,WSW,250,8.1,8.1,62,0.00,CLR,OVC,0.00,WeatherDisplay:10.37,2013-06-29 18:07:00,
2013-06-29 14:12:00,85.5,71.0,29.56,WSW,250,8.1,8.1,62,0.00,CLR,OVC,0.00,WeatherDisplay:10.37,2013-06-29 18:12:00,
2013-06-29 14:17:00,85.8,69.8,29.57,WSW,250,23.0,23.0,59,0.00,CLR,OVC,0.00,WeatherDisplay:10.37,2013-06-29 18:17:00,
2013-06-29 14:22:00,86.2,68.6,29.56,WSW,250,23.0,23.0,56,0.00,CLR,OVC,0.00,WeatherDisplay:10.37,2013-06-29 18:22:00,
2013-06-29 14:27:00,86.2,69.2,29.56,WSW,250,23.0,23.0,57,0.00,CLR,OVC,0.00,WeatherDisplay:10.37,2013-06-29 18:27:00,
2013-06-29 14:32:00,86.5,70.0,29.56,WSW,250,23.0,23.0,58,0.00,CLR,OVC,0.00,WeatherDisplay:10.37,2013-06-29 18:32:00,
2013-06-29 14:37:00,86.7,69.7,29.56,WSW,250,23.0,23.0,57,0.00,CLR,OVC,0.00,WeatherDisplay:10.37,2013-06-29 18:37:00,
2013-06-29 14:42:00,87.1,69.5,29.56,WSW,250,23.0,23.0,56,0.00,CLR,OVC,0.00,WeatherDisplay:10.37,2013-06-29 18:42:00,
2013-06-29 14:47:00,86.9,68.8,29.56,WSW,250,23.0,23.0,55,0.00,CLR,OVC,0.00,WeatherDisplay:10.37,2013-06-29 18:47:00,
2013-06-29 14:52:00,87.1,68.4,29.56,WSW,250,23.0,23.0,54,0.00,CLR,OVC,0.00,WeatherDisplay:10.37,2013-06-29 18:52:00,
2013-06-29 14:57:00,86.7,68.1,29.55,WSW,250,23.0,23.0,54,0.00,CLR,OVC,0.00,WeatherDisplay:10.37,2013-06-29 18:57:00,
2013-06-29 15:02:00,86.5,67.9,29.55,WSW,250,23.0,23.0,54,0.00,CLR,OVC,0.00,WeatherDisplay:10.37,2013-06-29 19:02:00,
2013-06-29 15:07:00,86.5,68.5,29.55,WSW,250,23.0,23.0,55,0.00,CLR,OVC,0.00,WeatherDisplay:10.37,2013-06-29 19:07:00,
2013-06-29 15:12:00,86.2,68.6,29.55,WSW,250,23.0,23.0,56,0.00,CLR,OVC,0.00,WeatherDisplay:10.37,2013-06-29 19:12:00,
2013-06-29 15:17:00,86.2,68.1,29.55,NW,310,23.0,23.0,55,0.00,FEW,OVC,0.00,WeatherDisplay:10.37,2013-06-29 19:17:00,
2013-06-29 15:22:00,86.0,66.9,29.55,NW,310,11.5,11.5,53,0.00,FEW,OVC,0.00,WeatherDisplay:10.37,2013-06-29 19:22:00,
2013-06-29 15:27:00,86.2,68.1,29.55,NW,310,11.5,11.5,55,0.00,FEW,OVC,0.00,WeatherDisplay:10.37,2013-06-29 19:27:00,
2013-06-29 15:32:00,86.5,68.5,29.55,NW,310,11.5,11.5,55,0.00,FEW,OVC,0.00,WeatherDisplay:10.37,2013-06-29 19:32:00,
2013-06-29 15:37:00,86.5,66.8,29.55,NW,310,11.5,11.5,52,0.00,FEW,OVC,0.00,WeatherDisplay:10.37,2013-06-29 19:37:00,
2013-06-29 15:42:00,86.7,67.0,29.55,NW,310,11.5,11.5,52,0.00,FEW,OVC,0.00,WeatherDisplay:10.37,2013-06-29 19:42:00,
2013-06-29 15:47:00,86.7,66.4,29.55,NW,310,11.5,11.5,51,0.00,FEW,OVC,0.00,WeatherDisplay:10.37,2013-06-29 19:47:00,
2013-06-29 15:52:00,86.9,67.2,29.55,NW,310,11.5,11.5,52,0.00,FEW,OVC,0.00,WeatherDisplay:10.37,2013-06-29 19:52:00,
2013-06-29 15:57:00,86.9,66.6,29.55,NW,310,11.5,11.5,51,0.00,FEW,OVC,0.00,WeatherDisplay:10.37,2013-06-29 19:57:00,
2013-06-29 16:02:00,86.2,67.0,29.55,NW,310,11.5,11.5,53,0.00,FEW,OVC,0.00,WeatherDisplay:10.37,2013-06-29 20:02:00,
2013-06-29 16:07:00,85.6,67.6,29.55,NW,310,11.5,11.5,55,0.00,FEW,OVC,0.00,WeatherDisplay:10.37,2013-06-29 20:07:00,
2013-06-29 16:12:00,85.3,67.8,29.55,NW,310,11.5,11.5,56,0.00,FEW,OVC,0.00,WeatherDisplay:10.37,2013-06-29 20:12:00,
2013-06-29 16:17:00,85.3,67.8,29.55,WNW,290,11.5,11.5,56,0.00,CLR,OVC,0.00,WeatherDisplay:10.37,2013-06-29 20:17:00,
2013-06-29 16:22:00,85.6,68.7,29.55,WNW,290,8.1,8.1,57,0.00,CLR,OVC,0.00,WeatherDisplay:10.37,2013-06-29 20:22:00,
2013-06-29 16:27:00,85.6,68.1,29.55,WNW,290,8.1,8.1,56,0.00,CLR,OVC,0.00,WeatherDisplay:10.37,2013-06-29 20:27:00,
2013-06-29 16:32:00,85.3,68.3,29.54,WNW,290,8.1,8.1,57,0.00,CLR,OVC,0.00,WeatherDisplay:10.37,2013-06-29 20:32:00,
2013-06-29 16:37:00,85.3,68.3,29.55,WNW,290,8.1,8.1,57,0.00,CLR,OVC,0.00,WeatherDisplay:10.37,2013-06-29 20:37:00,
2013-06-29 16:42:00,85.1,68.7,29.54,WNW,290,8.1,8.1,58,0.00,CLR,OVC,0.00,WeatherDisplay:10.37,2013-06-29 20:42:00,
2013-06-29 16:47:00,84.9,69.0,29.54,WNW,290,8.1,8.1,59,0.00,CLR,OVC,0.00,WeatherDisplay:10.37,2013-06-29 20:47:00,
2013-06-29 16:52:00,84.9,69.0,29.54,WNW,290,8.1,8.1,59,0.00,CLR,OVC,0.00,WeatherDisplay:10.37,2013-06-29 20:52:00,
2013-06-29 16:57:00,84.9,69.0,29.54,WNW,290,8.1,8.1,59,0.00,CLR,OVC,0.00,WeatherDisplay:10.37,2013-06-29 20:57:00,
2013-06-29 17:02:00,84.9,68.0,29.54,WNW,290,8.1,8.1,57,0.00,CLR,OVC,0.00,WeatherDisplay:10.37,2013-06-29 21:02:00,
2013-06-29 17:07:00,84.7,67.8,29.54,WNW,290,8.1,8.1,57,0.00,CLR,OVC,0.00,WeatherDisplay:10.37,2013-06-29 21:07:00,
2013-06-29 17:12:00,84.7,68.3,29.54,WNW,290,8.1,8.1,58,0.00,CLR,OVC,0.00,WeatherDisplay:10.37,2013-06-29 21:12:00,
2013-06-29 17:17:00,84.7,67.8,29.54,WNW,300,11.5,11.5,57,0.00,FEW,OVC,0.00,WeatherDisplay:10.37,2013-06-29 21:17:00,
2013-06-29 17:22:00,84.6,68.2,29.54,WNW,300,11.5,11.5,58,0.00,FEW,OVC,0.00,WeatherDisplay:10.37,2013-06-29 21:22:00,
2013-06-29 17:27:00,84.4,68.0,29.54,WNW,300,11.5,11.5,58,0.00,FEW,OVC,0.00,WeatherDisplay:10.37,2013-06-29 21:27:00,
2013-06-29 17:32:00,84.4,68.0,29.53,WNW,300,11.5,11.5,58,0.00,FEW,OVC,0.00,WeatherDisplay:10.37,2013-06-29 21:32:00,
2013-06-29 17:37:00,84.2,67.8,29.54,WNW,300,11.5,11.5,58,0.00,FEW,OVC,0.00,WeatherDisplay:10.37,2013-06-29 21:37:00,
2013-06-29 17:42:00,84.0,67.7,29.54,WNW,300,11.5,11.5,58,0.00,FEW,OVC,0.00,WeatherDisplay:10.37,2013-06-29 21:42:00,
2013-06-29 17:47:00,84.0,68.1,29.54,WNW,300,11.5,11.5,59,0.00,FEW,OVC,0.00,WeatherDisplay:10.37,2013-06-29 21:47:00,
2013-06-29 17:52:00,83.8,68.0,29.53,WNW,300,11.5,11.5,59,0.00,FEW,OVC,0.00,WeatherDisplay:10.37,2013-06-29 21:52:00,
2013-06-29 17:57:00,83.5,67.6,29.53,WNW,300,11.5,11.5,59,0.00,FEW,OVC,0.00,WeatherDisplay:10.37,2013-06-29 21:57:00,
2013-06-29 18:02:00,83.5,68.1,29.53,WNW,300,11.5,11.5,60,0.00,FEW,OVC,0.00,WeatherDisplay:10.37,2013-06-29 22:02:00,
2013-06-29 18:07:00,83.1,68.3,29.53,WNW,300,11.5,11.5,61,0.00,FEW,OVC,0.00,WeatherDisplay:10.37,2013-06-29 22:07:00,
2013-06-29 18:12:00,82.9,68.6,29.53,WNW,300,11.5,11.5,62,0.00,FEW,OVC,0.00,WeatherDisplay:10.37,2013-06-29 22:12:00,
2013-06-29 18:17:00,82.6,67.8,29.53,WNW,300,11.5,11.5,61,0.00,CLR,OVC,0.00,WeatherDisplay:10.37,2013-06-29 22:17:00,
2013-06-29 18:22:00,82.4,68.5,29.53,WNW,300,10.4,10.4,63,0.00,CLR,OVC,0.00,WeatherDisplay:10.37,2013-06-29 22:22:00,
2013-06-29 18:27:00,82.2,68.4,29.53,WNW,300,10.4,10.4,63,0.00,CLR,OVC,0.00,WeatherDisplay:10.37,2013-06-29 22:27:00,
2013-06-29 18:32:00,82.2,68.8,29.53,WNW,300,10.4,10.4,64,0.00,CLR,OVC,0.00,WeatherDisplay:10.37,2013-06-29 22:32:00,
2013-06-29 18:37:00,82.2,68.8,29.53,WNW,300,10.4,10.4,64,0.00,CLR,OVC,0.00,WeatherDisplay:10.37,2013-06-29 22:37:00,
2013-06-29 18:42:00,82.0,68.7,29.53,WNW,300,10.4,10.4,64,0.00,CLR,OVC,0.00,WeatherDisplay:10.37,2013-06-29 22:42:00,
2013-06-29 18:47:00,82.0,69.6,29.53,WNW,300,10.4,10.4,66,0.00,CLR,OVC,0.00,WeatherDisplay:10.37,2013-06-29 22:47:00,
2013-06-29 18:52:00,81.7,69.2,29.53,WNW,300,10.4,10.4,66,0.00,CLR,OVC,0.00,WeatherDisplay:10.37,2013-06-29 22:52:00,
2013-06-29 18:57:00,81.7,69.7,29.53,WNW,300,10.4,10.4,67,0.00,CLR,OVC,0.00,WeatherDisplay:10.37,2013-06-29 22:57:00,
2013-06-29 19:02:00,81.3,69.3,29.53,WNW,300,10.4,10.4,67,0.00,CLR,OVC,0.00,WeatherDisplay:10.37,2013-06-29 23:02:00,
2013-06-29 19:07:00,81.1,69.6,29.53,WNW,300,10.4,10.4,68,0.00,CLR,OVC,0.00,WeatherDisplay:10.37,2013-06-29 23:07:00,
2013-06-29 19:12:00,81.1,69.6,29.54,WNW,300,10.4,10.4,68,0.00,CLR,OVC,0.00,WeatherDisplay:10.37,2013-06-29 23:12:00,
2013-06-29 19:17:00,80.8,69.7,29.54,WNW,300,10.4,10.4,69,0.00,CLR,OVC,0.00,WeatherDisplay:10.37,2013-06-29 23:17:00,
2013-06-29 19:22:00,80.6,69.5,29.54,WNW,300,8.1,8.1,69,0.00,CLR,OVC,0.00,WeatherDisplay:10.37,2013-06-29 23:22:00,
2013-06-29 19:27:00,80.4,69.7,29.54,WNW,300,8.1,8.1,70,0.00,CLR,OVC,0.00,WeatherDisplay:10.37,2013-06-29 23:27:00,
2013-06-29 19:32:00,80.2,69.6,29.54,WNW,300,8.1,8.1,70,0.00,CLR,OVC,0.00,WeatherDisplay:10.37,2013-06-29 23:32:00,
2013-06-29 19:37:00,80.1,69.8,29.54,WNW,300,8.1,8.1,71,0.00,CLR,OVC,0.00,WeatherDisplay:10.37,2013-06-29 23:37:00,
2013-06-29 19:42:00,79.9,69.6,29.54,WNW,300,8.1,8.1,71,0.00,CLR,OVC,0.00,WeatherDisplay:10.37,2013-06-29 23:42:00,
2013-06-29 19:47:00,79.5,69.7,29.54,WNW,300,8.1,8.1,72,0.00,CLR,OVC,0.00,WeatherDisplay:10.37,2013-06-29 23:47:00,
2013-06-29 19:52:00,79.5,69.7,29.54,WNW,300,8.1,8.1,72,0.00,CLR,OVC,0.00,WeatherDisplay:10.37,2013-06-29 23:52:00,
2013-06-29 19:57:00,79.3,69.5,29.54,WNW,300,8.1,8.1,72,0.00,CLR,OVC,0.00,WeatherDisplay:10.37,2013-06-29 23:57:00,
2013-06-29 20:02:00,79.0,69.2,29.54,WNW,300,8.1,8.1,72,0.00,CLR,OVC,0.00,WeatherDisplay:10.37,2013-06-30 00:02:00,
2013-06-29 20:07:00,78.8,69.0,29.54,WNW,300,8.1,8.1,72,0.00,CLR,OVC,0.00,WeatherDisplay:10.37,2013-06-30 00:07:00,
2013-06-29 20:12:00,78.6,68.8,29.54,WNW,300,8.1,8.1,72,0.00,CLR,OVC,0.00,WeatherDisplay:10.37,2013-06-30 00:12:00,
2013-06-29 20:17:00,78.4,68.7,29.54,West,280,8.1,8.1,72,0.00,FEW,OVC,0.00,WeatherDisplay:10.37,2013-06-30 00:17:00,
2013-06-29 20:22:00,78.3,68.9,29.54,West,280,4.6,4.6,73,0.00,FEW,OVC,0.00,WeatherDisplay:10.37,2013-06-30 00:22:00,
2013-06-29 20:27:00,77.9,68.5,29.54,West,280,4.6,4.6,73,0.00,FEW,OVC,0.00,WeatherDisplay:10.37,2013-06-30 00:27:00,
2013-06-29 20:32:00,77.5,68.2,29.54,West,280,4.6,4.6,73,0.00,FEW,OVC,0.00,WeatherDisplay:10.37,2013-06-30 00:32:00,
2013-06-29 20:37:00,77.4,68.0,29.53,West,280,4.6,4.6,73,0.00,FEW,OVC,0.00,WeatherDisplay:10.37,2013-06-30 00:37:00,
2013-06-29 20:42:00,77.2,67.9,29.54,West,280,4.6,4.6,73,0.00,FEW,OVC,0.00,WeatherDisplay:10.37,2013-06-30 00:42:00,
2013-06-29 20:47:00,76.8,67.5,29.54,West,280,4.6,4.6,73,0.00,FEW,OVC,0.00,WeatherDisplay:10.37,2013-06-30 00:47:00,
2013-06-29 20:52:00,76.5,67.6,29.54,West,280,4.6,4.6,74,0.00,FEW,OVC,0.00,WeatherDisplay:10.37,2013-06-30 00:52:00,
2013-06-29 20:57:00,76.3,67.4,29.54,West,280,4.6,4.6,74,0.00,FEW,OVC,0.00,WeatherDisplay:10.37,2013-06-30 00:57:00,
2013-06-29 21:02:00,75.9,67.4,29.55,West,280,4.6,4.6,75,0.00,FEW,OVC,0.00,WeatherDisplay:10.37,2013-06-30 01:02:00,
2013-06-29 21:07:00,75.7,67.2,29.55,West,280,4.6,4.6,75,0.00,FEW,OVC,0.00,WeatherDisplay:10.37,2013-06-30 01:07:00,
2013-06-29 21:12:00,75.6,67.1,29.55,West,280,4.6,4.6,75,0.00,FEW,OVC,0.00,WeatherDisplay:10.37,2013-06-30 01:12:00,
2013-06-29 21:17:00,75.4,67.3,29.56,SW,230,4.6,4.6,76,0.00,CLR,OVC,0.00,WeatherDisplay:10.37,2013-06-30 01:17:00,
2013-06-29 21:22:00,75.0,66.9,29.56,SW,230,3.5,3.5,76,0.00,CLR,OVC,0.00,WeatherDisplay:10.37,2013-06-30 01:22:00,
2013-06-29 21:27:00,74.8,67.1,29.56,SW,230,3.5,3.5,77,0.00,CLR,OVC,0.00,WeatherDisplay:10.37,2013-06-30 01:27:00,
2013-06-29 21:32:00,74.7,67.0,29.56,SW,230,3.5,3.5,77,0.00,CLR,OVC,0.00,WeatherDisplay:10.37,2013-06-30 01:32:00,
2013-06-29 21:39:00,74.3,67.0,29.57,SW,230,3.5,3.5,78,0.00,CLR,OVC,0.00,WeatherDisplay:10.37,2013-06-30 01:39:00,
2013-06-29 21:44:00,74.1,66.8,29.57,SW,230,3.5,3.5,78,0.00,CLR,OVC,0.00,WeatherDisplay:10.37,2013-06-30 01:44:00,
2013-06-29 21:49:00,74.1,66.8,29.57,SW,230,3.5,3.5,78,0.00,CLR,OVC,0.00,WeatherDisplay:10.37,2013-06-30 01:49:00,
2013-06-29 21:55:00,73.9,67.0,29.57,SW,230,3.5,3.5,79,0.00,CLR,OVC,0.00,WeatherDisplay:10.37,2013-06-30 01:55:00,
2013-06-29 22:00:00,73.9,67.0,29.57,SW,230,3.5,3.5,79,0.00,CLR,OVC,0.00,WeatherDisplay:10.37,2013-06-30 02:00:00,
2013-06-29 22:05:00,73.6,67.0,29.57,SW,230,3.5,3.5,80,0.00,CLR,OVC,0.00,WeatherDisplay:10.37,2013-06-30 02:05:00,
2013-06-29 22:10:00,73.6,67.0,29.58,SW,230,3.5,3.5,80,0.00,CLR,OVC,0.00,WeatherDisplay:10.37,2013-06-30 02:10:00,
2013-06-29 22:15:00,73.4,66.9,29.58,SW,230,3.5,3.5,80,0.00,CLR,OVC,0.00,WeatherDisplay:10.37,2013-06-30 02:15:00,
2013-06-29 22:20:00,73.2,66.7,29.58,South,190,4.6,4.6,80,0.00,BKN,OVC,0.00,WeatherDisplay:10.37,2013-06-30 02:20:00,
2013-06-29 22:25:00,73.2,66.7,29.58,South,190,4.6,4.6,80,0.00,BKN,OVC,0.00,WeatherDisplay:10.37,2013-06-30 02:25:00,
2013-06-29 22:30:00,73.2,66.7,29.58,South,190,4.6,4.6,80,0.00,BKN,OVC,0.00,WeatherDisplay:10.37,2013-06-30 02:30:00,
2013-06-29 22:35:00,73.0,66.5,29.58,South,190,4.6,4.6,80,0.00,BKN,OVC,0.00,WeatherDisplay:10.37,2013-06-30 02:35:00,
2013-06-29 22:40:00,72.9,66.3,29.58,South,190,4.6,4.6,80,0.00,BKN,OVC,0.00,WeatherDisplay:10.37,2013-06-30 02:40:00,
2013-06-29 22:45:00,72.9,66.3,29.58,South,190,4.6,4.6,80,0.00,BKN,OVC,0.00,WeatherDisplay:10.37,2013-06-30 02:45:00,
2013-06-29 22:50:00,72.3,66.2,29.58,South,190,4.6,4.6,81,0.00,BKN,OVC,0.00,WeatherDisplay:10.37,2013-06-30 02:50:00,
2013-06-29 22:55:00,72.3,66.2,29.58,South,190,4.6,4.6,81,0.00,BKN,OVC,0.00,WeatherDisplay:10.37,2013-06-30 02:55:00,
2013-06-29 23:00:00,72.3,66.2,29.58,South,190,4.6,4.6,81,0.00,BKN,OVC,0.00,WeatherDisplay:10.37,2013-06-30 03:00:00,
2013-06-29 23:05:00,72.1,66.0,29.59,South,190,4.6,4.6,81,0.00,SCT,OVC,0.00,WeatherDisplay:10.37,2013-06-30 03:05:00,
2013-06-29 23:10:00,72.0,65.8,29.59,South,190,4.6,4.6,81,0.00,BKN,OVC,0.00,WeatherDisplay:10.37,2013-06-30 03:10:00,
2013-06-29 23:15:00,71.8,65.6,29.59,South,190,4.6,4.6,81,0.00,SCT,OVC,0.00,WeatherDisplay:10.37,2013-06-30 03:15:00,
2013-06-29 23:20:00,71.8,66.0,29.59,South,190,4.6,4.6,82,0.00,BKN,OVC,0.00,WeatherDisplay:10.37,2013-06-30 03:20:00,
2013-06-29 23:25:00,71.4,65.6,29.59,South,190,4.6,4.6,82,0.00,SCT,OVC,0.00,WeatherDisplay:10.37,2013-06-30 03:25:00,
2013-06-29 23:30:00,71.4,66.0,29.59,South,190,4.6,4.6,83,0.00,SCT,OVC,0.00,WeatherDisplay:10.37,2013-06-30 03:30:00,
2013-06-29 23:35:00,71.2,65.8,29.59,South,190,4.6,4.6,83,0.00,SCT,OVC,0.00,WeatherDisplay:10.37,2013-06-30 03:35:00,
2013-06-29 23:40:00,70.9,65.5,29.58,South,190,4.6,4.6,83,0.00,BKN,OVC,0.00,WeatherDisplay:10.37,2013-06-30 03:40:00,
2013-06-29 23:45:00,70.9,65.5,29.59,South,190,4.6,4.6,83,0.00,SCT,OVC,0.00,WeatherDisplay:10.37,2013-06-30 03:45:00,
2013-06-29 23:50:00,70.9,65.5,29.59,South,190,4.6,4.6,83,0.00,SCT,OVC,0.00,WeatherDisplay:10.37,2013-06-30 03:50:00,
2013-06-29 23:55:00,70.3,65.3,29.59,South,190,4.6,4.6,84,0.00,SCT,OVC,0.00,WeatherDisplay:10.37,2013-06-30 03:55:00,